Regional Weather Roundup
Issued by NWS Sioux Falls, SD

Home | Current Version | Previous Version | Text Only | Print | Product List | Glossary On
Versions: 1 2 3 4 5 6 7 8 9 10 11 12 13 14 15 16 17 18 19 20 21 22 23 24 25 26 27 28 29 30 31 32 33 34 35 36 37 38 39 40 41 42 43 44 45 46 47 48 49 50
000
ASUS43 KFSD 241502
RWRFSD

WEATHER ROUNDUP FOR SE SOUTH DAKOTA/SW MINNESOTA/NW IOWA
NATIONAL WEATHER SERVICE SIOUX FALLS SD
1000 AM CDT FRI OCT 24 2014

NOTE: "FAIR" INDICATES FEW OR NO CLOUDS BELOW 12,000 FEET WITH NO
SIGNIFICANT WEATHER AND OR OBSTRUCTIONS TO VISIBILITY.


SDZ038>040-050-052>070-241600-
SOUTHEAST SOUTH DAKOTA

CITY           SKY/WX    TMP DP  RH WIND       PRES   REMARKS
CHAMBERLAIN    PTSUNNY   50  38  64 W6        29.93R
HURON          CLOUDY    47  41  80 CALM      29.90R
MADISON        FAIR      48  48 100 NW6       29.89R
MITCHELL       CLOUDY    49  43  80 W3        29.91R
SIOUX FALLS    CLOUDY    53  49  86 W3        29.89R
WINNER           N/A    N/A N/A N/A MISG        N/A
YANKTON        CLOUDY    55  48  76 NW7       29.91R
$$

MNZ071-072-080-081-089-090-097-098-241600-
SOUTHWEST MINNESOTA

CITY           SKY/WX    TMP DP  RH WIND       PRES   REMARKS
FAIRMONT       PTSUNNY   55  50  82 S9        29.88S
JACKSON        CLOUDY    55  52  88 SW9       29.88R
LUVERNE        FOG       50  50 100 CALM      29.89R VSB<1/4
MARSHALL       CLOUDY    54  48  82 W5        29.86R
MONTEVIDEO     CLOUDY    52  50  93 W5        29.86R
PIPESTONE      CLOUDY    52  50  93 NW3       29.88S FOG
REDWOOD FALLS  PTSUNNY   52  47  83 S6        29.85S
TRACY          CLOUDY    56  52  86 W3        29.87R
WINDOM         CLOUDY    55  52  88 SW7       29.87R
WORTHINGTON    CLOUDY    54  52  94 W10       29.89R
$$

IAZ001>003-012>014-020>022-031-032-NEZ013-014-SDZ071-241600-
NORTHWEST IOWA

CITY           SKY/WX    TMP DP  RH WIND       PRES   REMARKS
CHEROKEE       CLOUDY    59  58  98 S7        29.89S FOG
DENISON        CLOUDY    61  61 100 SW8G16    29.91R FOG
ESTHERVILLE    CLOUDY    56  53  90 SW10      29.88R FOG
LE MARS        CLOUDY    57  55  94 SW6       29.91R
ORANGE CITY    CLOUDY    57  54  88 SW7       29.90R FOG
SHELDON        CLOUDY    55  55 100 SW7       29.89R FOG
SIOUX CITY     CLOUDY    57  55  93 CALM      29.91R
SPENCER        CLOUDY    59  55  87 SW14      29.89R
STORM LAKE     CLOUDY    59  57  94 SW14G22   29.91R FOG
$$

ABBREVIATIONS USED IN REMARKS
   TC - TEMPERATURE IN CELSIUS
  WCI - WIND CHILL INDEX
   HX - HEAT INDEX
  VSB - VISIBILITY




USA.gov is the U.S. government's official web portal to all federal, state and local government web resources and services.